Regional Weather Roundup
Issued by NWS

Home | Current Version | Previous Version | Text Only | Print | Product List | Glossary Off
Versions: 1 2 3 4 5 6 7 8 9 10 11 12 13 14 15 16 17 18 19 20 21 22 23 24 25 26 27 28 29 30 31 32 33 34 35 36 37 38 39 40 41 42 43 44 45 46 47 48 49 50

000
ASUS43 KDTX 260401
RWRMI
MICHIGAN HOURLY REGIONAL WEATHER ROUNDUP
NATIONAL WEATHER SERVICE DETROIT/PONTIAC MI
1100 PM EST SAT FEB 25 2017

NOTE: "FAIR" INDICATES FEW OR NO CLOUDS BELOW 12,000 FEET WITH NO
SIGNIFICANT WEATHER AND/OR OBSTRUCTION TO VISIBILITY.

MIZ047>049-052>055-059>063-066>070-074>076-081>083-260500-
SOUTHEAST LOWER MICHIGAN

CITY           SKY/WX    TMP DP  RH WIND       PRES   REMARKS
ADRIAN         CLOUDY    24  15  68 NW16G22   29.99R WCI  11
ALMA           FLURRIES  24  18  77 W9G16     29.94R WCI  14
ANN ARBOR      CLOUDY    23  13  65 W10G22    29.95R WCI  12
BAD AXE        CLOUDY    26  18  72 W15G21    29.87R WCI  13
CARO           CLOUDY    26  18  73 W15G22    29.90R WCI  13
DETROIT CITY   CLOUDY    25  12  58 W13G20    29.96R WCI  14
DETROIT        FLURRIES  25  13  60 W13       29.98R WCI  14
FLINT          CLOUDY    24  16  71 W18       29.93R WCI  10
GROSSE ILE     CLOUDY    26  12  57 W12G21    29.97R WCI  15
HILLSDALE      FLURRIES  21  18  86 W14G21    29.95R WCI   8
HOWELL         CLOUDY    23  15  71 W12       29.93S WCI  12

CITY           SKY/WX    TMP DP  RH WIND       PRES   REMARKS
JACKSON        FLURRIES  22  15  75 W10G18    29.96R WCI  11
LAMBERTVILLE   CLOUDY    27  15  60 NW9G18    29.99R WCI  18
LANSING        LGT SNOW  23  16  74 W13       29.95R WCI  11
LAPEER         CLOUDY    25  18  73 W9        29.91R WCI  16
MASON          LGT SNOW  23  19  84 W8        29.95R WCI  14
MONROE         FLURRIES  25  18  74 NW13      29.98R WCI  13
MT. CLEMENS    CLOUDY    26  14  60 W9        29.92R WCI  16
PONTIAC        FLURRIES  23  14  68 W17G23    29.91R WCI   9
PORT HOPE        N/A     28  17  63 W14G23    29.83R WCI  17
PORT HURON     CLOUDY    25  16  68 W6        29.92R WCI  18
TRI CITIES     CLOUDY    25  17  72 W16       29.91R WCI  12
MIDLAND        CLOUDY    26  16  64 W10       29.90R WCI  16
TROY           CLOUDY    26  11  54 W13G20    29.96R WCI  15
SAGINAW HB     CLOUDY    27  18  69 W12       29.91R WCI  16
$$
MIZ043>046-050>051-056>058-064>065-071>073-077>080-260500-
SOUTHWEST LOWER MICHIGAN

CITY           SKY/WX    TMP DP  RH WIND       PRES   REMARKS
BATTLE CREEK   FLURRIES  22  17  81 W5        29.97R WCI  16
BENTON HARBOR  CLOUDY    27  14  58 NW9       30.01R WCI  18
BIG RAPIDS     FLURRIES  23  15  71 NW9       29.90R WCI  13
COLDWATER      FLURRIES  23  19  83 W7        29.98R WCI  15
FREMONT        CLOUDY    23  15  72 W5        29.94R WCI  16
HOLLAND        CLOUDY    26  16  65 W8        29.98R WCI  18
GRAND RAPIDS   FLURRIES  24  16  71 W12       29.95R WCI  13
IONIA          FLURRIES  23  18  81 W7        29.94R WCI  15
KALAMAZOO      CLOUDY    24  15  68 W6        29.98R WCI  17
LUDINGTON      CLEAR     25  14  63 NW10G18   29.93R WCI  15
MARSHALL       FLURRIES  23  17  78 W9        29.96S WCI  13
MOUNT PLEASANT FLURRIES  24  18  79 W10       29.91R WCI  13
MUSKEGON       CLOUDY    27  15  61 W10       29.96S WCI  17
SOUTH HAVEN    CLOUDY    27  17  67 NW7       30.00R WCI  19
$$
MIZ016>042-260500-
NORTHERN LOWER MICHIGAN

CITY           SKY/WX    TMP DP  RH WIND       PRES   REMARKS
ALPENA         CLOUDY    23  14  68 W7        29.83R WCI  15
BEAVER ISLAND  CLOUDY    24  15  71 W20G28    29.83R WCI   9
BELLAIRE       CLOUDY    25  14  63 NW9G17    29.88R WCI  15
CADILLAC       FLURRIES  22  15  75 W9        29.85R WCI  11
CHARLEVOIX     CLOUDY    25  14  65 W17G26    29.88R WCI  11
FRANKFORT      MOCLDY    26  16  68 W13       29.90R WCI  14
GAYLORD        LGT SNOW  22  15  75 W9        29.79R WCI  12
GRAYLING       LGT SNOW  22  19  85 W7        29.83R WCI  14
HARBOR SPRINGS CLOUDY    23  12  62 W9G21     29.83R WCI  13
HOUGHTON LAKE  LGT SNOW  22  18  85 W14       29.84R FOG     WCI   9
MANISTEE       PTCLDY    24  15  68 W14       29.91R WCI  12
OSCODA         FLURRIES  26  21  83 NW5       29.85R WCI  20
PELLSTON       CLOUDY    23   9  55 W9        29.82R WCI  13
TRAVERSE CITY  CLOUDY    26  14  60 W13       29.88R WCI  15
$$
MIZ007>008-015-260500-
EASTERN UPPER MICHIGAN

CITY           SKY/WX    TMP DP  RH WIND       PRES   REMARKS
KINROSS        FLURRIES  19  16  88 W13       29.75R WCI   6
MACKINAC ISLAN CLOUDY    23  16  72 W21G30    29.79R WCI   8
NEWBERRY       LGT SNOW  19  16  88 SW10      29.77R WCI   7
S. S. MARIE    LGT SNOW  22  18  85 W8        29.73R FOG     WCI  12
MUNISING         N/A     18  10  71 SW9       29.80R WCI   7
$$
MIZ004>006-011>014-085-260500-
CENTRAL UPPER MICHIGAN

CITY           SKY/WX    TMP DP  RH WIND       PRES   REMARKS
MANISTIQUE     CLEAR     17  11  78 W6        29.83R WCI   8
ESCANABA       CLEAR     10   7  87 W6        29.87R WCI   0
MENOMINEE      CLEAR     14   8  77 W6        29.90R WCI   5
SAWYER-GWINN   CLEAR     14   9  80 W8        29.79R WCI   2
$$
MIZ001>003-009>011-084-260500-
WESTERN UPPER MICHIGAN

CITY           SKY/WX    TMP DP  RH WIND       PRES   REMARKS
IRON MOUNTAIN  CLOUDY    14   7  73 CALM      29.81R
HOUGHTON       CLOUDY    26  15  63 W13       29.72S WCI  15
COPPER HARBOR    N/A     27  12  53 N15G25    29.73R WCI  15
IRONWOOD       CLOUDY    22  13  68 SW9       29.75F WCI  12
$$

ABBREVIATIONS USED IN REMARKS
   TC - TEMPERATURE IN CELSIUS
  WCI - WIND CHILL INDEX
   HX - HEAT INDEX
  VSB - VISIBILITY




USA.gov is the U.S. government's official web portal to all federal, state and local government web resources and services.